This is the latest recevied weather packets stored in our database for station/object W4NDF-13. If no packets are shown the sender has not sent any weather packets the latest 10 day(s).
| Time | Temp. | Humidity | Pressure | Rain* | Wind** | Luminosity | Snow |
|---|---|---|---|---|---|---|---|
| 1777938969 | 22.78° C | 54% | 1015.5 hPa | 0 mm | - | 30 W/m² | - |
| 1777938666 | 22.78° C | 53% | 1015.4 hPa | 0 mm | - | 30 W/m² | - |
| 1777938363 | 22.78° C | 52% | 1015.5 hPa | 0 mm | - | 34 W/m² | - |
| 1777938060 | 22.78° C | 52% | 1015.6 hPa | 0 mm | - | 39 W/m² | - |
| 1777937755 | 22.78° C | 52% | 1015.7 hPa | 0 mm | - | 40 W/m² | - |
| 1777937452 | 22.78° C | 51% | 1015.7 hPa | 0 mm | - | 42 W/m² | - |
| 1777937149 | 23.33° C | 50% | 1015.7 hPa | 0 mm | - | 42 W/m² | - |
| 1777936847 | 23.33° C | 50% | 1015.6 hPa | 0 mm | - | 48 W/m² | - |
| 1777936543 | 23.33° C | 49% | 1015.8 hPa | 0 mm | - | 143 W/m² | - |
| 1777936239 | 23.89° C | 49% | 1015.9 hPa | 0 mm | - | 159 W/m² | - |
| 1777935936 | 23.89° C | 48% | 1015.7 hPa | 0 mm | - | 176 W/m² | - |
| 1777935635 | 23.89° C | 48% | 1015.8 hPa | 0 mm | - | 175 W/m² | - |
| 1777935332 | 23.89° C | 48% | 1015.8 hPa | 0 mm | - | 225 W/m² | - |
| 1777935029 | 23.89° C | 47% | 1015.9 hPa | 0 mm | - | 217 W/m² | - |
| 1777934725 | 23.89° C | 46% | 1016 hPa | 0 mm | - | 263 W/m² | - |
| 1777934422 | 23.89° C | 46% | 1016 hPa | 0 mm | - | 261 W/m² | - |
| 1777934119 | 24.44° C | 45% | 1016 hPa | 0 mm | - | 269 W/m² | - |
| 1777933815 | 24.44° C | 45% | 1016 hPa | 0 mm | - | 274 W/m² | - |
| 1777933512 | 23.89° C | 44% | 1016.2 hPa | 0 mm | - | 294 W/m² | - |
| 1777933210 | 24.44° C | 45% | 1016 hPa | 0 mm | - | 316 W/m² | - |
| 1777932907 | 24.44° C | 43% | 1016 hPa | 0 mm | - | 336 W/m² | - |
| 1777932603 | 24.44° C | 44% | 1016.1 hPa | 0 mm | - | 342 W/m² | - |
| 1777932300 | 25° C | 43% | 1016.3 hPa | 0 mm | - | 361 W/m² | - |
| 1777931996 | 24.44° C | 44% | 1016.2 hPa | 0 mm | - | 395 W/m² | - |
| 1777931693 | 25° C | 43% | 1016.1 hPa | 0 mm | - | 411 W/m² | - |
* Rain latest hour (hover to see other rain measurements)
** Current wind speed in m/s (hover to see current wind gust speed)